Wind_Speed
4 3 2 3 4 7 19 6 4 3 9 8 9 10 9 7 10 9 9 8 12 16 14 16 16 25 24 24 24 24 24 25 25 22 19 18 17 14 15 17 19 20 20 20 20 19 18 17 17
5 4 1 5 7 14 12 8 3 5 6 3 6 10 9 12 11 10 11 13 20 20 22 23 23 29 24 25 26 27 28 29 28 27 25 24 23 23 23 21 18 19 20 21 23 23 21 20 19
6 5 1 5 7 9 7 7 5 3 3 5 9 11 13 11 9 10 14 16 18 24 21 28 27 27 26 31 32 27 31 30 33 32 31 30 28 27 26 26 26 25 23 19 22 26 25 23 21
6 5 8 11 13 12 7 4 3 4 8 9 14 13 15 17 17 17 20 23 23 24 22 26 28 30 37 39 30 30 30 34 37 39 38 37 36 33 29 28 27 27 27 28 27 24 22 27 25
7 6 7 14 12 12 5 2 7 13 16 16 16 15 14 16 20 22 24 25 28 32 30 30 33 35 34 34 33 40 38 42 39 42 37 40 41 39 39 38 35 33 31 30 30 28 26 25 26
7 4 11 13 12 8 4 4 11 15 17 18 20 18 19 19 19 23 26 28 28 28 29 32 33 36 37 38 41 40 39 39 39 42 47 47 44 35 38 40 37 35 36 34 32 32 29 27 25
6 5 15 13 11 6 3 7 12 15 18 17 18 20 18 20 22 24 26 28 31 34 36 37 37 37 37 37 38 39 40 42 46 44 44 43 40 44 43 44 38 34 36 39 38 35 35 34 30
9 9 10 5 5 10 10 11 16 18 18 17 15 11 18 20 23 26 29 32 33 32 33 33 35 37 41 43 43 42 42 41 43 47 49 46 44 51 51 46 45 43 42 42 43 41 41 38 37
6 3 5 3 7 12 12 13 14 18 17 17 20 19 20 20 22 24 25 24 28 33 37 39 40 37 33 32 33 35 39 41 42 42 42 44 48 52 51 48 49 49 46 43 44 44 43 45 36
4 3 4 6 8 10 10 12 17 15 17 17 15 14 13 18 21 26 32 34 37 40 39 35 36 39 39 37 37 35 33 33 35 36 36 39 42 44 47 51 49 49 50 50 49 48 47 47 44
3 3 1 3 4 8 11 13 14 18 19 20 20 21 22 23 28 32 38 41 41 41 43 44 44 44 44 44 41 37 34 34 35 36 38 37 37 39 42 45 47 49 49 51 55 52 52 50 49
2 2 3 4 7 8 10 13 17 15 17 19 20 19 21 32 37 37 39 41 43 43 43 41 40 40 40 40 41 43 43 40 33 30 33 37 41 41 39 40 42 45 47 49 51 57 57 54 53
4 3 3 3 5 7 12 16 16 18 19 18 18 18 31 35 36 36 38 40 41 41 42 42 43 43 43 42 42 41 41 40 41 39 30 29 33 39 42 41 41 42 42 45 45 49 54 58 57
4 3 4 5 7 12 13 14 14 15 15 16 15 24 34 36 37 38 40 43 44 44 43 42 42 42 42 42 41 40 39 39 38 38 37 32 31 32 34 41 42 42 41 41 43 44 45 51 55
1 4 7 11 11 14 14 15 16 15 13 13 18 27 37 37 39 43 43 45 45 44 44 43 43 43 45 45 43 43 40 37 35 33 33 34 32 31 33 34 39 43 42 42 44 42 42 44 48
4 4 10 11 11 13 15 14 11 9 11 16 20 28 40 41 43 43 43 44 44 45 46 47 46 45 45 45 43 41 38 36 33 33 33 33 32 30 31 35 35 37 45 43 43 45 42 43 45
1 4 9 4 9 9 13 10 6 7 13 17 23 34 42 43 43 44 44 43 42 44 45 44 43 42 42 40 38 35 34 34 33 34 34 35 35 37 37 34 35 35 41 44 44 46 49 48 46
9 10 9 10 7 8 14 10 4 8 15 18 22 39 44 44 45 45 43 41 40 42 45 44 40 38 36 37 34 31 31 31 31 30 30 32 35 36 41 43 39 38 37 44 47 46 47 49 42
11 8 3 20 4 13 10 5 3 12 15 19 23 40 48 47 47 44 42 39 38 39 44 46 42 38 38 36 37 35 33 31 29 28 28 29 31 33 33 37 39 39 42 39 47 48 49 49 44
6 7 13 2 9 10 7 2 5 10 14 22 31 43 52 50 47 43 40 36 38 40 42 43 41 40 40 38 38 38 37 34 32 29 27 26 27 30 33 33 35 37 39 41 40 49 51 51 49
10 10 23 13 10 6 6 2 5 7 13 21 29 44 49 48 47 44 39 36 38 41 43 43 42 42 42 40 40 41 40 36 33 30 29 29 28 26 29 33 33 32 40 39 40 42 51 51 49
19 22 9 4 8 4 4 2 5 13 17 25 37 47 48 47 43 40 37 36 40 43 43 42 42 43 41 43 44 44 43 42 34 30 29 29 30 29 25 29 31 31 36 39 40 41 50 52 51
24 16 4 1 5 3 2 7 10 17 30 35 41 48 44 44 42 39 38 37 40 44 42 42 42 41 40 43 41 41 41 40 36 29 27 28 29 29 27 25 27 29 30 37 37 39 42 52 53
23 6 2 3 2 2 3 7 9 24 35 41 46 42 44 43 39 38 38 37 39 42 41 42 43 43 41 40 40 41 40 39 32 24 25 26 28 32 32 25 24 26 25 33 33 35 39 42 50
25 17 4 2 3 4 9 4 7 17 30 41 44 42 43 41 40 40 40 39 40 41 40 43 43 43 42 40 39 41 38 34 31 25 26 29 32 33 31 22 21 22 21 26 29 31 35 38 41
26 20 6 4 3 8 14 2 3 15 31 40 36 38 40 40 42 40 39 40 40 41 41 42 43 43 42 35 39 39 36 33 31 28 26 29 32 30 26 21 23 18 18 21 25 26 27 32 37
11 14 12 3 7 4 5 4 9 13 33 40 36 39 40 40 41 38 37 38 38 40 42 43 43 43 39 34 36 40 38 37 34 28 27 29 31 27 21 15 14 13 13 17 24 23 23 24 26
16 20 7 7 4 5 6 6 10 33 47 40 39 42 41 41 38 36 36 36 36 39 41 41 42 43 42 36 34 38 39 40 33 28 28 33 28 23 19 16 10 7 5 8 17 20 19 21 23
14 20 11 5 4 2 3 4 12 35 42 36 37 41 43 42 36 34 35 34 37 39 40 40 42 41 42 40 35 35 39 37 32 28 31 30 25 20 17 15 12 8 4 2 8 15 16 16 19
11 16 18 4 4 5 5 9 9 36 30 31 36 40 41 39 35 33 33 35 37 39 39 41 41 42 43 42 39 36 38 37 32 29 31 31 24 18 17 17 15 12 8 5 4 7 14 19 17
Wind_Direction
174 184 241 360 111 88 61 50 34 44 315 342 314 313 305 295 299 293 288 304 292 306 292 301 286 288 285 285 288 285 282 281 282 277 273 273 273 279 280 276 273 270 270 265 259 258 259 258 256
184 190 264 69 125 104 66 100 34 3 325 294 315 318 323 311 307 312 309 292 288 288 291 279 296 292 282 289 282 284 284 281 276 274 271 272 272 270 270 272 278 276 268 268 260 253 251 253 254
187 189 198 122 93 99 86 116 75 62 6 343 319 311 311 312 304 291 281 270 277 275 280 282 293 273 285 281 283 282 274 281 274 272 270 270 269 268 268 266 263 265 271 271 267 249 247 248 249
178 168 100 135 125 106 117 93 64 281 280 279 306 309 307 311 307 300 290 292 292 282 279 289 279 267 284 281 275 272 277 267 273 275 267 270 268 266 264 264 264 264 264 263 265 268 266 251 247
166 146 145 126 118 120 108 241 267 272 288 306 317 308 303 298 296 293 292 289 289 295 295 284 281 285 281 282 280 281 273 270 269 267 272 260 263 266 267 266 263 260 261 261 262 262 260 255 247
164 130 161 172 153 155 158 284 311 314 312 312 312 312 306 303 297 295 298 306 308 305 298 293 289 288 287 285 283 275 273 273 272 269 263 266 266 263 261 250 248 254 260 259 258 256 253 251 253
153 167 183 172 161 184 266 297 311 332 328 318 318 312 306 303 301 306 309 313 313 312 310 307 305 301 297 293 289 284 281 275 271 270 272 265 272 272 271 266 258 254 252 258 260 256 252 250 248
164 140 144 192 236 274 299 324 330 326 319 321 319 302 304 311 315 318 318 317 317 313 311 309 308 306 302 300 296 292 289 285 277 273 275 271 270 266 270 266 267 263 259 256 255 252 253 242 245
183 197 150 224 302 318 314 324 321 316 321 315 317 318 321 327 324 315 311 311 311 310 309 309 308 308 306 302 297 293 289 284 278 274 269 268 268 264 264 264 262 258 253 252 251 249 246 248 245
214 247 262 269 308 319 320 320 319 325 316 311 317 323 329 326 331 330 324 319 318 317 318 317 316 314 312 308 304 298 293 291 287 284 279 269 265 261 259 261 260 258 258 253 249 248 246 245 247
232 248 247 335 322 314 315 313 317 318 313 323 329 337 342 341 332 330 336 338 335 330 325 322 321 320 317 315 313 309 302 293 283 279 278 279 276 271 264 258 254 252 252 251 251 246 246 246 245
61 98 46 2 315 304 306 313 317 319 327 333 341 345 347 345 351 348 342 335 327 324 322 323 323 321 318 314 311 310 310 308 304 290 277 271 270 270 267 268 265 258 248 247 246 248 245 244 245
48 80 70 338 296 292 292 308 318 322 330 338 346 353 353 353 347 343 336 328 326 326 326 327 325 322 320 317 316 315 311 306 303 300 290 281 276 268 266 265 261 261 260 257 249 245 243 242 242
81 77 3 336 301 302 303 316 320 328 340 340 343 353 355 349 344 340 336 333 330 331 330 327 323 320 317 314 314 312 310 307 304 297 296 288 277 272 269 263 260 257 257 255 258 252 245 244 240
50 342 339 326 320 328 323 321 320 327 337 335 350 357 352 345 343 340 337 333 332 329 328 326 323 320 315 314 312 309 308 306 304 298 293 292 287 276 268 263 260 257 253 253 252 254 254 248 245
342 346 334 319 317 311 310 303 307 336 337 341 345 348 345 344 339 337 336 334 333 331 330 329 326 321 315 313 310 307 305 303 301 296 293 289 284 280 274 268 261 254 252 250 248 249 248 251 251
334 300 321 331 298 300 309 309 310 358 320 331 347 345 343 339 339 340 339 337 335 335 336 334 332 329 325 320 314 312 307 302 299 295 291 287 280 275 274 270 266 259 249 245 245 245 250 252 250
319 306 307 330 296 284 307 296 347 299 314 335 342 346 342 341 343 342 340 338 343 346 344 340 337 335 332 330 330 330 327 321 313 304 297 290 284 279 273 268 264 260 250 241 239 241 244 250 256
328 306 313 331 269 309 301 296 309 297 306 326 335 341 345 346 345 343 340 345 348 349 351 352 348 347 345 345 345 344 336 330 325 317 309 301 292 285 282 274 267 253 252 245 240 237 239 246 249
335 294 313 7 290 307 269 306 44 291 311 330 328 338 347 346 343 343 344 347 347 347 350 352 351 354 352 349 347 341 334 330 326 324 320 315 303 290 282 278 270 259 248 247 242 236 235 240 244
8 329 326 310 270 290 258 153 200 277 311 318 323 343 343 344 343 343 345 347 345 344 345 343 344 346 347 347 347 344 341 327 320 320 322 323 319 304 288 280 273 267 249 247 240 236 232 238 240
10 343 326 247 218 260 221 273 248 311 319 326 342 339 343 344 343 345 349 348 344 344 344 348 348 349 347 345 341 341 342 341 329 316 320 322 321 320 301 282 274 271 252 245 241 236 232 234 238
1 347 18 86 215 224 245 264 355 344 345 344 341 344 343 344 345 350 351 348 343 341 343 347 347 345 347 343 342 339 339 338 335 328 324 325 322 323 318 298 282 270 260 243 239 237 237 234 237
8 10 69 91 168 200 231 322 4 3 355 346 342 343 345 343 345 352 352 347 342 345 348 348 350 348 348 347 343 340 341 339 334 329 329 330 330 331 325 308 291 273 266 246 240 235 236 235 236
22 37 15 336 345 237 331 355 30 355 349 346 342 347 345 344 352 354 352 348 346 352 353 352 351 351 351 350 349 349 349 350 347 340 337 336 337 329 323 307 300 280 269 249 241 239 237 236 236
23 30 50 273 293 301 306 232 291 341 336 339 345 344 344 350 356 355 354 348 353 353 354 355 353 354 355 356 0 1 1 358 356 346 338 341 339 337 329 311 305 284 268 249 240 240 241 239 238
18 22 14 323 283 298 308 301 280 292 331 343 350 347 350 355 356 356 354 353 356 354 357 357 356 358 358 354 3 5 5 0 355 353 349 347 346 343 342 326 313 298 275 251 234 241 246 244 244
35 25 7 2 32 317 302 303 309 343 348 345 350 351 352 356 357 359 354 358 359 359 359 359 360 1 360 353 354 356 358 357 356 360 356 351 352 354 359 352 351 339 313 254 229 243 250 249 250
30 32 24 36 21 207 303 284 335 343 341 342 350 353 354 355 357 1 359 5 4 3 2 2 5 2 4 5 1 360 1 6 6 7 5 1 3 14 21 24 23 11 350 266 262 251 243 249 260
21 20 20 36 314 253 252 287 316 334 333 344 352 352 356 357 357 4 7 9 8 6 6 8 7 7 7 8 11 11 10 10 11 16 12 13 15 25 27 30 33 28 10 356 307 278 255 243 247
Height
3184 3184 3184 3185 3189 3187 3186 3188 3188 3185 3184 3182 3183 3183 3182 3180 3179 3181 3176 3175 3174 3173 3173 3171 3169 3167 3165 3164 3163 3161 3160 3158 3156 3154 3153 3152 3151 3149 3148 3148 3147 3147 3147 3147 3147 3146 3146 3145 3145
3183 3184 3185 3184 3186 3185 3188 3188 3186 3183 3182 3183 3183 3182 3181 3179 3177 3176 3176 3174 3172 3170 3169 3166 3165 3163 3161 3160 3159 3157 3156 3154 3151 3150 3148 3147 3146 3145 3144 3143 3143 3142 3141 3142 3142 3141 3142 3141 3141
3184 3184 3186 3185 3185 3186 3189 3188 3186 3185 3184 3184 3183 3181 3179 3177 3175 3174 3173 3171 3170 3167 3165 3163 3163 3160 3156 3154 3153 3151 3149 3147 3146 3144 3143 3141 3140 3139 3139 3137 3137 3137 3136 3136 3135 3134 3136 3136 3137
3183 3185 3185 3185 3185 3187 3187 3187 3188 3188 3185 3183 3181 3178 3177 3174 3172 3170 3168 3165 3163 3161 3159 3157 3156 3153 3151 3150 3147 3145 3143 3141 3139 3136 3135 3134 3133 3132 3132 3131 3131 3131 3130 3130 3130 3130 3130 3130 3131
3183 3184 3184 3185 3185 3186 3186 3185 3186 3185 3183 3180 3179 3176 3175 3173 3169 3165 3163 3161 3158 3155 3154 3154 3151 3148 3143 3140 3138 3136 3134 3132 3130 3129 3127 3126 3125 3124 3124 3124 3123 3123 3123 3123 3123 3124 3125 3125 3124
3183 3183 3184 3182 3183 3185 3186 3185 3183 3182 3182 3180 3177 3174 3170 3167 3164 3161 3158 3157 3154 3152 3148 3146 3143 3140 3135 3133 3130 3127 3125 3122 3120 3117 3116 3115 3115 3115 3114 3114 3113 3113 3116 3115 3115 3116 3117 3119 3120
3183 3181 3181 3182 3184 3185 3184 3184 3183 3180 3179 3178 3174 3170 3167 3163 3159 3157 3156 3153 3149 3145 3141 3138 3135 3132 3128 3125 3122 3118 3114 3112 3109 3107 3106 3104 3102 3102 3103 3105 3105 3105 3106 3107 3108 3109 3109 3110 3112
3182 3182 3183 3183 3184 3185 3184 3182 3181 3179 3176 3173 3170 3167 3164 3161 3158 3155 3151 3148 3145 3141 3137 3133 3129 3124 3119 3114 3111 3108 3105 3101 3099 3097 3095 3094 3093 3093 3093 3093 3092 3094 3096 3098 3099 3100 3102 3101 3103
3182 3183 3183 3183 3183 3183 3182 3180 3179 3176 3173 3169 3166 3163 3162 3159 3156 3154 3151 3148 3142 3137 3130 3124 3118 3111 3108 3104 3101 3096 3093 3090 3088 3085 3084 3082 3082 3083 3082 3082 3082 3082 3084 3087 3089 3090 3092 3093 3094
3183 3184 3184 3183 3181 3180 3179 3178 3176 3174 3170 3167 3164 3162 3161 3158 3154 3149 3145 3140 3135 3128 3121 3115 3109 3103 3099 3094 3090 3087 3084 3081 3077 3073 3071 3069 3068 3068 3067 3069 3070 3070 3071 3073 3076 3080 3081 3082 3084
3181 3181 3181 3180 3180 3178 3176 3175 3173 3169 3166 3163 3161 3159 3156 3153 3150 3145 3136 3127 3119 3114 3108 3103 3097 3091 3086 3081 3076 3073 3071 3070 3067 3064 3062 3059 3057 3056 3055 3054 3055 3055 3057 3059 3062 3065 3068 3071 3073
3181 3181 3181 3180 3178 3177 3175 3173 3170 3167 3164 3161 3159 3157 3154 3148 3140 3134 3128 3122 3116 3109 3103 3097 3091 3085 3079 3075 3068 3062 3057 3054 3054 3054 3052 3048 3047 3046 3045 3043 3042 3042 3042 3043 3046 3049 3054 3057 3061
3180 3180 3180 3179 3178 3176 3174 3172 3168 3164 3162 3160 3157 3154 3149 3143 3138 3132 3126 3119 3111 3103 3096 3089 3082 3076 3070 3064 3058 3054 3050 3045 3041 3038 3039 3038 3036 3034 3034 3032 3031 3032 3031 3030 3031 3035 3038 3042 3047
3179 3178 3178 3177 3176 3174 3171 3168 3165 3163 3161 3159 3155 3152 3146 3141 3134 3126 3120 3112 3104 3096 3089 3083 3077 3070 3063 3057 3051 3046 3041 3036 3032 3028 3025 3025 3025 3023 3021 3021 3021 3022 3021 3019 3019 3021 3024 3027 3031
3177 3178 3176 3175 3172 3169 3168 3166 3163 3162 3160 3157 3153 3149 3144 3137 3129 3121 3115 3106 3098 3092 3084 3077 3069 3061 3053 3047 3042 3036 3031 3026 3022 3018 3016 3012 3011 3011 3010 3009 3009 3009 3010 3009 3009 3011 3014 3014 3017
3176 3176 3174 3172 3170 3169 3168 3165 3162 3161 3157 3155 3151 3146 3140 3133 3125 3118 3111 3102 3094 3085 3076 3065 3058 3050 3043 3036 3030 3026 3021 3015 3013 3009 3006 3003 3001 2999 2998 2996 2996 2998 2999 2998 2999 3000 3001 3005 3006
3175 3174 3172 3170 3169 3167 3167 3163 3160 3159 3155 3152 3148 3143 3136 3129 3122 3113 3105 3096 3088 3078 3068 3058 3049 3040 3032 3026 3020 3016 3011 3006 3003 2999 2995 2992 2990 2988 2985 2984 2984 2985 2985 2986 2989 2990 2992 2994 2996
3175 3173 3172 3171 3171 3168 3164 3161 3160 3155 3152 3149 3146 3139 3133 3125 3117 3107 3100 3091 3081 3071 3063 3053 3043 3034 3026 3019 3013 3007 3001 2997 2993 2988 2984 2981 2977 2974 2971 2969 2969 2971 2972 2974 2977 2979 2982 2984 2988
3172 3171 3170 3169 3167 3165 3162 3160 3157 3153 3151 3148 3142 3136 3128 3120 3112 3104 3095 3084 3076 3069 3059 3047 3038 3029 3020 3012 3005 2998 2993 2989 2985 2981 2975 2970 2966 2962 2959 2956 2956 2957 2958 2962 2965 2968 2971 2974 2977
3171 3170 3168 3168 3163 3163 3160 3158 3157 3152 3150 3146 3140 3133 3122 3115 3108 3100 3090 3081 3073 3064 3055 3047 3038 3026 3017 3009 3001 2994 2987 2982 2976 2972 2968 2963 2957 2952 2948 2946 2944 2945 2946 2948 2951 2956 2959 2962 2968
3170 3168 3163 3163 3160 3160 3158 3156 3154 3153 3151 3147 3140 3131 3123 3113 3102 3093 3085 3077 3070 3061 3052 3043 3033 3023 3015 3006 2998 2991 2984 2976 2969 2964 2959 2954 2950 2944 2939 2935 2933 2933 2934 2935 2940 2942 2947 2952 2957
3167 3163 3159 3157 3158 3158 3157 3157 3155 3152 3148 3143 3134 3127 3119 3110 3100 3091 3081 3073 3066 3058 3049 3040 3030 3020 3011 3002 2993 2985 2975 2967 2962 2956 2953 2948 2942 2937 2931 2926 2923 2922 2921 2924 2928 2931 2935 2940 2945
3167 3160 3158 3156 3155 3156 3158 3156 3152 3147 3141 3136 3131 3124 3116 3107 3097 3087 3078 3070 3063 3056 3045 3036 3026 3017 3008 2999 2990 2981 2972 2963 2955 2950 2945 2941 2935 2929 2923 2918 2914 2912 2911 2913 2917 2922 2925 2931 2935
3167 3159 3158 3156 3155 3156 3155 3155 3151 3146 3142 3135 3129 3123 3113 3104 3095 3085 3077 3069 3062 3054 3043 3034 3023 3014 3005 2994 2987 2978 2967 2958 2950 2945 2939 2934 2928 2921 2914 2910 2906 2903 2902 2904 2908 2912 2915 2920 2925
3168 3160 3158 3159 3157 3156 3153 3152 3153 3148 3144 3137 3127 3119 3112 3102 3092 3081 3073 3066 3060 3050 3041 3030 3020 3011 3001 2992 2984 2974 2963 2954 2946 2939 2933 2927 2920 2913 2907 2902 2899 2896 2896 2897 2900 2903 2907 2911 2915
3169 3166 3166 3166 3165 3158 3154 3152 3150 3147 3143 3137 3130 3122 3111 3100 3089 3080 3071 3064 3056 3048 3039 3028 3019 3008 2999 2991 2982 2972 2962 2953 2945 2937 2930 2923 2915 2908 2900 2897 2893 2891 2890 2891 2894 2897 2901 2904 2907
3172 3169 3169 3166 3164 3162 3154 3151 3147 3145 3141 3132 3126 3116 3106 3096 3086 3078 3071 3064 3056 3048 3037 3027 3017 3007 2998 2989 2980 2971 2961 2952 2943 2935 2928 2920 2912 2904 2897 2892 2889 2887 2886 2886 2889 2893 2896 2898 2901
3175 3173 3169 3168 3171 3166 3152 3149 3146 3139 3132 3128 3121 3112 3104 3095 3085 3077 3070 3064 3057 3048 3037 3028 3017 3006 2997 2988 2978 2970 2960 2950 2941 2933 2926 2918 2910 2903 2896 2892 2888 2885 2884 2884 2886 2889 2891 2894 2896
3176 3173 3172 3171 3171 3171 3165 3148 3146 3142 3135 3127 3121 3113 3104 3094 3085 3076 3070 3064 3056 3047 3038 3028 3018 3009 2998 2987 2978 2970 2960 2949 2940 2933 2925 2917 2911 2904 2899 2895 2891 2888 2886 2884 2885 2886 2887 2889 2891
3176 3175 3173 3171 3170 3167 3165 3152 3148 3145 3137 3130 3123 3114 3105 3095 3085 3076 3069 3063 3056 3048 3040 3028 3019 3009 2998 2988 2978 2969 2960 2950 2941 2933 2926 2919 2913 2907 2903 2898 2894 2891 2888 2885 2883 2883 2884 2885 2886